Regional Weather Roundup
Issued by NWS

Home | Current Version | Previous Version | Graphics & Text | Print | Product List | Glossary On
Versions: 1 2 3 4 5 6 7 8 9 10 11 12 13 14 15 16 17 18 19 20 21 22 23 24 25 26 27 28 29 30 31 32 33 34 35 36 37 38 39 40 41 42 43 44 45 46 47 48 49 50
804
ASUS43 KBIS 242110
RWRND
NORTH DAKOTA REGIONAL WEATHER ROUNDUP
NATIONAL WEATHER SERVICE EASTERN NORTH DAKOTA/GRAND FORKS ND
400 PM CDT WED MAY 24 2017

  NOTE: "FAIR" INDICATES FEW OR NO CLOUDS BELOW 12,000 FEET WITH NO
  SIGNIFICANT WEATHER AND/OR OBSTRUCTIONS TO VISIBILITY.

NDZ001>003-009>011-017-242200-
...NORTHWEST NORTH DAKOTA...

CITY           SKY/WX    TMP DP  RH WIND       PRES   REMARKS
WILLISTON      FAIR      77  39  25 SE25G35   29.29F
MINOT          FAIR      72  33  24 S31G39    29.41F
MINOT AFB      FAIR      71  35  26 S28G40    29.41F
$$

NDZ018>021-031>035-040>046-242200-
...SOUTHWEST NORTH DAKOTA...

CITY           SKY/WX    TMP DP  RH WIND       PRES   REMARKS
BISMARCK       FAIR      69  40  34 SE26G32   29.51F
DICKINSON      FAIR      71  34  25 S30G39    29.37F
GARRISON         N/A     70  38  31 S24G31    29.44F
HETTINGER      FAIR      73  37  27 S24G36    29.44F
$$

NDZ004>008-012>016-024-026-027-054-242200-
...NORTHEAST NORTH DAKOTA...

CITY           SKY/WX    TMP DP  RH WIND       PRES   REMARKS
GRAND FORKS    PTSUNNY   67  42  40 SE21G29   29.64F
GRAND FORKS AF PTSUNNY   67  41  39 S20G28    29.64F
DEVILS LAKE    FAIR      65  42  43 S23G29    29.59F
$$

NDZ022-023-025-028>030-036>039-047>053-242200-
...SOUTHEAST NORTH DAKOTA...

CITY           SKY/WX    TMP DP  RH WIND       PRES   REMARKS
JAMESTOWN      PTSUNNY   63  43  48 SE18G29   29.61F
FARGO          CLOUDY    64  42  44 S13G22    29.67F
WAHPETON       CLOUDY    61  41  48 SE13      29.70S
$$




USA.gov is the U.S. government's official web portal to all federal, state and local government web resources and services.